SCP
-0 0 0 0 0 0 0 0 0 -0 0 0 0 0 0 0 0 0 0 1 1 1 0 -0 -0 -0 0 0 -0 0 -0 -0 -1 -1 -1 -1 -1 -1 -1 -0 -0 -1 -1 -1
-0 -0 -0 0 0 0 0 0 0 0 0 0 0 0 0 0 0 0 0 1 1 1 1 0 0 -0 0 0 0 -0 -0 -1 -1 -1 -1 -1 -1 -1 -1 -1 -1 -1 -1 -1
0 -0 0 -0 0 0 0 0 0 0 0 0 0 0 0 0 0 0 0 0 0 0 1 2 1 -0 -0 0 1 0 -0 -0 -1 -1 -1 -1 -1 -1 -1 -1 -1 -1 -1 -1
0 0 0 0 0 0 0 0 0 0 0 0 0 0 0 0 0 0 0 0 0 0 0 0 1 0 0 1 2 1 1 1 0 -1 -1 -1 -2 -2 -1 -1 -1 -1 -1 -1
0 0 0 0 0 0 0 0 0 0 0 0 1 1 2 2 2 2 1 1 1 0 0 0 0 0 0 1 2 3 1 1 1 1 -1 -1 -2 -2 -1 -1 -0 -0 -0 -0
0 0 0 0 0 0 0 0 0 1 1 0 1 1 1 1 2 2 2 2 1 1 0 1 0 0 1 1 1 1 1 1 2 1 1 0 0 0 2 1 1 1 0 0
0 0 0 0 0 0 0 0 0 0 0 1 0 0 0 0 1 4 4 3 1 1 1 1 1 0 0 1 1 1 2 2 3 3 2 3 4 5 4 4 4 2 2 1
0 0 0 0 0 0 0 0 0 0 0 0 0 0 0 0 1 2 5 3 2 1 2 1 1 0 1 2 2 2 2 2 3 3 3 6 6 7 7 6 6 5 4 3
0 0 -0 0 0 0 0 0 0 0 0 0 0 0 0 0 0 0 4 5 5 3 3 3 3 2 1 2 3 3 5 2 4 6 7 6 6 9 9 8 8 8 6 4
0 0 0 0 0 0 0 0 0 0 0 0 0 0 0 0 1 0 1 2 3 3 4 3 2 2 2 2 2 3 2 2 6 8 7 6 7 7 8 8 7 7 6 4
0 0 0 0 0 0 0 0 0 0 0 0 0 0 0 0 0 0 0 0 1 2 4 1 1 2 2 2 2 2 3 3 5 7 6 7 5 5 5 5 4 4 4 4
0 0 0 0 0 0 0 0 0 0 0 0 0 0 0 0 0 0 0 0 0 1 2 1 0 0 1 1 1 2 3 3 5 5 5 5 3 1 0 0 0 0 1 0
-0 0 0 0 0 0 0 0 0 0 0 0 0 0 0 0 0 0 0 1 1 2 2 1 1 0 0 1 2 2 3 3 3 4 4 5 5 3 0 0 0 0 0 0
0 0 -0 0 0 0 0 0 0 0 0 0 0 0 0 0 0 0 0 0 1 1 1 1 1 1 1 1 1 1 2 1 2 2 1 2 2 5 0 0 0 0 0 0
0 0 0 0 0 0 0 0 0 0 0 0 0 0 0 0 0 -0 0 0 0 0 -0 -0 0 0 1 1 0 0 0 1 1 1 1 2 2 1 1 0 0 0 0 0
0 0 0 0 0 0 0 0 0 0 0 -0 -0 0 -0 -0 -0 -0 0 -0 0 1 0 0 0 0 1 0 1 1 0 0 1 1 0 0 0 0 0 0 0 0 0 0
-0 0 -0 0 0 0 0 0 0 0 0 0 0 0 -0 -0 -0 -0 -0 0 0 0 0 0 0 0 0 1 0 0 0 0 0 0 0 0 0 0 0 0 0 0 0 0
-0 -0 -0 0 0 0 0 0 0 0 0 0 0 -0 -0 -0 -0 0 0 0 0 0 0 0 0 0 0 1 0 0 0 0 0 0 0 0 0 0 0 0 0 0 0 0
-0 -0 -0 -0 -0 0 0 0 0 0 0 0 0 0 0 0 0 0 0 0 0 0 0 0 0 0 0 0 0 0 0 0 0 0 0 0 0 0 0 0 0 0 0 0
-0 -0 -0 -0 -0 -0 0 0 0 0 0 0 0 0 0 0 0 0 0 0 0 0 0 0 0 0 0 0 0 0 0 0 0 0 0 0 0 0 0 0 0 0 0 0
-0 0 0 -0 -0 -0 -0 -0 -0 0 0 0 0 0 0 0 0 0 0 0 0 0 0 0 0 0 0 0 0 0 0 0 0 0 0 0 0 0 0 0 0 0 0 0
-0 -0 -0 -0 0 -0 -0 -0 -0 -0 -0 -0 0 0 0 0 0 0 0 0 0 0 0 0 0 0 0 0 0 0 0 0 0 0 0 0 0 0 0 0 0 0 0 0
0 0 -0 0 -0 -0 -0 0 -0 -0 0 0 0 0 0 0 0 0 0 0 0 0 0 0 0 0 0 0 0 0 0 0 0 0 0 0 0 0 0 0 0 0 0 0
-0 -0 -0 -0 -0 -0 -0 -0 -0 -0 -0 -0 -0 0 0 0 0 0 0 0 0 0 0 0 0 0 0 0 0 0 0 0 0 0 0 0 0 0 0 0 0 0 0 0
0 -0 0 -0 0 -0 -0 -0 -0 -0 -0 -0 -0 -0 -0 -0 -0 -0 -0 -0 0 0 0 0 0 0 0 0 0 0 0 0 0 0 0 0 0 0 0 0 0 0 0 0
-0 0 -0 -0 -0 0 0 -0 -0 -0 -0 -0 -0 -0 -0 -0 -0 -0 0 -0 -0 -0 0 0 0 0 0 0 0 0 0 0 0 0 0 0 0 0 0 0 0 0 0 0
0 0 0 0 0 -0 -0 -0 -0 0 0 0 -0 0 0 0 0 0 0 0 0 0 0 0 0 0 0 0 0 0 0 0 0 0 0 0 0 0 0 0 0 0 0 0
Wind_Speed_500mb
27 28 26 33 50 43 45 26 33 23 13 9 4 14 14 31 33 49 57 87 92 96 96 103 102 102 100 96 93 93 87 88 90 85 82 82 84 84 83 86 92 92 89 89
10 22 29 36 53 46 41 38 20 29 17 16 15 47 42 49 51 52 44 50 66 82 100 109 109 100 99 100 95 90 90 82 79 80 80 83 86 86 87 86 84 86 91 93
9 11 11 6 29 47 36 36 32 25 16 11 15 25 30 49 45 43 46 44 41 37 66 73 92 102 100 99 95 95 94 91 85 82 79 80 78 83 88 88 87 88 90 92
9 11 5 14 9 23 36 19 39 28 22 23 18 41 47 54 52 36 34 31 29 24 20 26 21 68 95 95 96 92 94 93 93 92 87 82 82 82 82 84 87 89 90 91
8 3 6 9 25 22 7 22 46 22 8 28 56 73 53 59 57 50 39 30 20 17 12 7 24 25 57 84 95 96 91 92 94 93 92 90 92 90 86 85 85 88 90 92
9 9 4 23 52 63 17 21 41 40 37 28 44 23 10 49 48 45 39 27 14 7 9 13 15 39 56 63 70 90 91 89 83 80 88 90 91 92 91 89 90 87 88 89
9 7 12 35 49 38 14 7 35 51 48 62 35 27 46 45 51 43 34 28 11 2 7 11 6 1 23 52 72 70 70 70 74 80 87 87 82 83 89 91 91 91 90 87
1 7 8 68 45 27 12 37 45 54 63 54 61 61 49 45 51 59 43 29 20 11 13 16 19 18 12 16 19 43 65 71 64 62 64 74 81 80 80 82 84 85 84 82
11 5 28 26 37 45 47 41 50 47 54 49 60 61 55 46 45 49 53 41 23 17 20 16 6 18 26 22 25 25 40 41 44 57 60 57 56 68 74 74 73 76 75 72
13 24 29 23 16 43 44 37 39 45 42 45 47 47 50 50 46 44 44 40 27 22 33 14 8 14 22 31 39 43 41 40 49 45 50 46 44 52 56 65 65 65 63 61
17 17 35 33 49 56 59 44 26 30 32 29 30 37 41 43 44 47 34 31 25 23 32 23 22 18 20 25 30 29 28 34 38 43 44 40 37 44 45 45 45 49 48 47
14 46 17 42 58 57 56 52 43 49 30 29 19 26 35 38 38 41 45 35 29 26 24 29 29 31 27 29 26 24 28 32 36 35 35 33 31 37 46 32 43 38 40 42
57 60 65 59 58 51 42 41 38 38 40 36 36 33 36 50 45 42 43 31 31 30 30 32 29 30 26 20 18 20 24 28 24 27 37 34 35 41 51 47 39 40 48 44
68 65 63 54 34 34 42 34 40 31 24 29 30 29 28 36 37 36 38 27 29 23 23 26 27 25 15 9 10 22 14 19 32 31 22 43 39 42 47 44 41 31 26 22
66 66 81 68 45 41 37 34 38 32 26 30 29 34 40 35 31 38 36 29 27 23 16 7 9 12 14 10 8 11 19 25 22 24 25 29 32 36 35 31 21 17 10 12
51 41 51 56 40 35 35 37 40 37 35 35 36 34 40 41 37 36 34 20 20 22 19 10 10 10 8 6 18 15 19 23 24 33 32 37 34 35 32 26 19 8 5 5
33 18 15 19 26 31 31 30 31 35 34 41 47 45 42 39 43 32 15 30 34 26 22 24 22 19 21 17 8 22 28 30 31 30 27 29 33 36 34 29 24 18 8 5
75 51 37 23 17 24 26 24 32 30 33 38 48 45 43 41 28 23 29 30 26 30 30 22 16 27 26 24 24 27 27 26 23 21 20 20 19 17 17 17 15 12 5 3
94 84 87 77 30 14 20 18 5 9 12 13 16 2 13 21 33 27 32 30 24 22 18 24 29 33 45 44 38 33 31 40 42 43 38 34 30 30 29 26 23 18 14 11
87 79 85 91 76 62 49 40 32 38 43 39 45 50 55 58 59 61 50 65 65 60 43 45 43 46 49 36 41 45 38 40 40 37 32 29 28 33 33 28 25 26 24 22
66 77 71 70 76 71 70 62 73 70 64 65 67 66 68 64 67 71 68 68 60 67 69 53 75 67 66 63 52 44 39 34 34 42 39 42 40 38 36 34 33 32 32 33
42 53 56 62 60 61 60 61 65 63 64 62 60 61 68 68 64 73 70 63 55 60 61 60 63 70 68 70 66 56 51 41 40 44 46 44 45 42 40 38 37 37 38 36
20 33 36 44 49 47 50 60 62 60 60 50 55 59 59 55 60 71 68 57 56 56 57 57 49 44 45 48 53 49 42 43 47 48 44 42 43 45 37 33 33 32 32 32
28 26 23 27 34 42 45 43 45 44 44 54 55 46 48 48 47 44 43 37 33 30 42 43 37 41 37 33 41 44 38 31 29 32 34 34 27 21 28 30 27 24 20 22
20 29 32 36 24 25 34 33 29 20 35 33 31 45 37 37 36 38 34 34 30 25 28 28 31 29 31 21 19 27 42 42 36 40 40 34 27 23 22 18 15 14 16 23
26 18 26 31 27 29 28 34 28 34 27 31 31 28 31 32 33 29 25 25 25 36 33 37 37 35 36 33 24 20 28 32 28 29 33 34 34 29 18 13 14 21 25 30
21 26 27 36 29 22 17 23 28 25 26 29 33 32 29 30 26 27 27 26 33 32 34 34 35 30 33 28 24 24 31 27 26 27 24 22 24 34 33 16 15 16 24 30
Wind_Direction_500mb
267 270 266 237 199 197 207 202 207 227 219 201 71 89 105 131 135 179 172 174 172 181 182 190 197 202 206 211 214 218 225 230 232 233 235 235 235 238 237 236 238 238 238 236
291 262 265 272 201 193 204 212 235 221 234 198 151 103 85 88 99 96 98 169 172 177 184 191 201 205 207 209 213 216 221 230 234 235 235 237 238 238 240 242 239 241 243 242
302 279 285 213 248 196 204 202 210 234 195 169 126 127 127 109 97 92 89 88 99 118 190 191 196 203 207 211 215 216 220 226 229 231 234 236 239 240 241 242 245 245 245 247
285 33 112 257 322 304 197 199 210 230 168 164 127 65 79 109 115 98 89 81 78 86 127 152 176 210 213 213 213 218 222 226 228 232 235 237 239 240 242 243 245 248 250 249
319 310 298 268 3 346 249 54 7 351 180 119 97 70 36 54 68 69 76 76 73 69 55 180 201 206 207 213 214 217 221 228 230 234 238 240 241 242 244 245 247 250 253 255
348 310 192 357 340 325 305 57 2 15 32 108 88 79 33 46 54 60 66 67 76 67 42 67 79 212 208 209 210 215 221 227 230 234 237 241 246 246 246 248 250 252 253 256
282 296 1 342 345 15 69 55 12 20 28 54 70 75 61 56 49 45 47 55 76 109 341 24 339 244 173 212 222 230 230 232 233 235 239 244 245 246 246 244 247 248 252 255
11 359 16 355 14 57 84 43 35 21 23 46 52 53 51 42 41 44 56 47 43 31 349 320 315 289 267 203 198 224 235 238 237 238 239 243 247 250 246 245 244 246 250 254
338 92 71 360 338 9 37 39 25 25 22 34 36 33 33 27 28 31 42 55 62 30 9 353 243 274 275 257 239 238 229 234 238 241 242 241 243 243 242 241 240 243 247 254
328 7 340 33 354 349 353 9 5 9 20 29 30 22 18 20 17 18 29 43 38 30 23 334 272 251 258 266 263 260 258 253 241 236 233 234 239 238 237 239 241 245 250 253
303 23 342 356 354 350 342 353 345 342 347 0 16 10 4 10 4 3 12 21 11 359 8 330 299 281 266 251 250 249 248 238 229 225 230 235 228 232 234 238 245 247 248 248
293 312 319 307 322 327 337 344 348 5 339 342 351 6 344 349 3 358 2 353 346 335 316 307 305 306 303 278 260 245 229 224 215 216 221 220 210 212 221 229 234 232 235 238
291 293 296 293 301 307 317 325 331 344 358 2 358 358 351 341 349 354 353 343 332 313 300 296 295 300 310 303 261 221 217 219 209 205 213 207 209 202 204 205 210 215 230 233
295 289 283 266 270 292 298 310 322 317 333 340 345 350 335 7 359 352 337 309 302 287 272 284 283 273 271 297 254 212 163 166 187 190 186 192 189 208 213 201 193 198 205 234
292 274 262 261 262 259 268 292 309 319 314 311 323 330 336 340 344 337 320 307 296 280 237 245 233 225 236 259 243 182 173 163 156 167 153 158 149 145 149 163 175 197 226 262
327 266 244 236 242 248 264 273 289 292 299 303 304 306 311 309 313 309 309 282 236 229 214 194 190 194 161 112 204 193 171 166 155 148 142 148 145 147 147 136 139 151 214 256
15 68 148 209 241 247 253 270 286 279 285 294 296 288 297 300 282 303 284 226 213 193 167 177 186 183 161 167 196 162 155 153 159 159 147 145 145 141 140 146 146 139 133 17
41 44 36 4 265 248 249 269 280 281 278 278 279 283 283 285 280 226 197 163 173 172 159 125 190 174 165 152 150 144 140 145 153 141 135 134 132 142 149 155 155 139 117 29
38 39 43 44 53 245 259 285 262 225 241 275 286 247 208 200 175 154 146 164 148 150 150 123 112 150 160 149 153 148 138 121 116 109 102 98 92 91 93 96 98 101 99 81
37 41 47 47 59 67 74 95 112 104 105 116 113 114 124 122 122 113 120 99 88 95 103 108 108 110 100 108 108 116 125 117 116 115 117 109 103 95 96 94 93 87 81 72
48 42 44 53 53 56 64 62 79 82 80 78 74 72 83 95 101 109 101 89 84 98 107 100 96 100 101 104 97 99 99 103 110 112 104 102 104 100 95 90 83 75 69 64
55 57 57 55 57 56 54 57 62 67 72 70 72 71 69 69 72 81 76 74 69 78 84 86 94 92 100 104 103 102 99 99 92 91 93 93 92 84 77 78 76 70 63 58
45 52 65 65 63 63 56 52 54 53 57 59 59 55 54 53 53 61 61 58 57 57 59 56 58 82 85 95 101 99 94 99 95 100 95 92 94 97 91 75 68 54 44 39
39 63 68 77 71 69 64 55 50 46 49 47 46 46 44 47 54 63 67 58 57 59 71 74 72 70 72 77 82 89 90 86 97 100 100 100 97 110 103 98 83 67 42 38
65 50 59 65 79 76 72 58 50 59 62 59 44 44 66 61 77 72 75 76 79 102 90 84 77 92 81 105 115 111 93 92 95 99 90 77 65 55 60 66 65 47 27 18
38 98 75 68 68 62 65 53 45 48 62 58 57 59 56 63 76 73 72 83 74 77 104 85 87 97 91 86 83 104 102 91 90 98 104 104 92 82 67 52 34 16 7 1
51 50 59 50 38 55 71 56 50 47 60 67 60 50 50 59 67 72 74 77 79 82 72 84 78 83 87 81 93 93 82 82 83 88 102 114 101 88 74 82 59 21 353 354
Wind_Speed_850mb
27 28 26 33 50 43 45 26 33 23 13 9 4 14 14 31 33 49 57 87 92 96 96 103 102 102 100 96 93 93 87 88 90 85 82 82 84 84 83 86 92 92 89 89
10 22 29 36 53 46 41 38 20 29 17 16 15 47 42 49 51 52 44 50 66 82 100 109 109 100 99 100 95 90 90 82 79 80 80 83 86 86 87 86 84 86 91 93
9 11 11 6 29 47 36 36 32 25 16 11 15 25 30 49 45 43 46 44 41 37 66 73 92 102 100 99 95 95 94 91 85 82 79 80 78 83 88 88 87 88 90 92
9 11 5 14 9 23 36 19 39 28 22 23 18 41 47 54 52 36 34 31 29 24 20 26 21 68 95 95 96 92 94 93 93 92 87 82 82 82 82 84 87 89 90 91
8 3 6 9 25 22 7 22 46 22 8 28 56 73 53 59 57 50 39 30 20 17 12 7 24 25 57 84 95 96 91 92 94 93 92 90 92 90 86 85 85 88 90 92
9 9 4 23 52 63 17 21 41 40 37 28 44 23 10 49 48 45 39 27 14 7 9 13 15 39 56 63 70 90 91 89 83 80 88 90 91 92 91 89 90 87 88 89
9 7 12 35 49 38 14 7 35 51 48 62 35 27 46 45 51 43 34 28 11 2 7 11 6 1 23 52 72 70 70 70 74 80 87 87 82 83 89 91 91 91 90 87
1 7 8 68 45 27 12 37 45 54 63 54 61 61 49 45 51 59 43 29 20 11 13 16 19 18 12 16 19 43 65 71 64 62 64 74 81 80 80 82 84 85 84 82
11 5 28 26 37 45 47 41 50 47 54 49 60 61 55 46 45 49 53 41 23 17 20 16 6 18 26 22 25 25 40 41 44 57 60 57 56 68 74 74 73 76 75 72
13 24 29 23 16 43 44 37 39 45 42 45 47 47 50 50 46 44 44 40 27 22 33 14 8 14 22 31 39 43 41 40 49 45 50 46 44 52 56 65 65 65 63 61
17 17 35 33 49 56 59 44 26 30 32 29 30 37 41 43 44 47 34 31 25 23 32 23 22 18 20 25 30 29 28 34 38 43 44 40 37 44 45 45 45 49 48 47
14 46 17 42 58 57 56 52 43 49 30 29 19 26 35 38 38 41 45 35 29 26 24 29 29 31 27 29 26 24 28 32 36 35 35 33 31 37 46 32 43 38 40 42
57 60 65 59 58 51 42 41 38 38 40 36 36 33 36 50 45 42 43 31 31 30 30 32 29 30 26 20 18 20 24 28 24 27 37 34 35 41 51 47 39 40 48 44
68 65 63 54 34 34 42 34 40 31 24 29 30 29 28 36 37 36 38 27 29 23 23 26 27 25 15 9 10 22 14 19 32 31 22 43 39 42 47 44 41 31 26 22
66 66 81 68 45 41 37 34 38 32 26 30 29 34 40 35 31 38 36 29 27 23 16 7 9 12 14 10 8 11 19 25 22 24 25 29 32 36 35 31 21 17 10 12
51 41 51 56 40 35 35 37 40 37 35 35 36 34 40 41 37 36 34 20 20 22 19 10 10 10 8 6 18 15 19 23 24 33 32 37 34 35 32 26 19 8 5 5
33 18 15 19 26 31 31 30 31 35 34 41 47 45 42 39 43 32 15 30 34 26 22 24 22 19 21 17 8 22 28 30 31 30 27 29 33 36 34 29 24 18 8 5
75 51 37 23 17 24 26 24 32 30 33 38 48 45 43 41 28 23 29 30 26 30 30 22 16 27 26 24 24 27 27 26 23 21 20 20 19 17 17 17 15 12 5 3
94 84 87 77 30 14 20 18 5 9 12 13 16 2 13 21 33 27 32 30 24 22 18 24 29 33 45 44 38 33 31 40 42 43 38 34 30 30 29 26 23 18 14 11
87 79 85 91 76 62 49 40 32 38 43 39 45 50 55 58 59 61 50 65 65 60 43 45 43 46 49 36 41 45 38 40 40 37 32 29 28 33 33 28 25 26 24 22
66 77 71 70 76 71 70 62 73 70 64 65 67 66 68 64 67 71 68 68 60 67 69 53 75 67 66 63 52 44 39 34 34 42 39 42 40 38 36 34 33 32 32 33
42 53 56 62 60 61 60 61 65 63 64 62 60 61 68 68 64 73 70 63 55 60 61 60 63 70 68 70 66 56 51 41 40 44 46 44 45 42 40 38 37 37 38 36
20 33 36 44 49 47 50 60 62 60 60 50 55 59 59 55 60 71 68 57 56 56 57 57 49 44 45 48 53 49 42 43 47 48 44 42 43 45 37 33 33 32 32 32
28 26 23 27 34 42 45 43 45 44 44 54 55 46 48 48 47 44 43 37 33 30 42 43 37 41 37 33 41 44 38 31 29 32 34 34 27 21 28 30 27 24 20 22
20 29 32 36 24 25 34 33 29 20 35 33 31 45 37 37 36 38 34 34 30 25 28 28 31 29 31 21 19 27 42 42 36 40 40 34 27 23 22 18 15 14 16 23
26 18 26 31 27 29 28 34 28 34 27 31 31 28 31 32 33 29 25 25 25 36 33 37 37 35 36 33 24 20 28 32 28 29 33 34 34 29 18 13 14 21 25 30
21 26 27 36 29 22 17 23 28 25 26 29 33 32 29 30 26 27 27 26 33 32 34 34 35 30 33 28 24 24 31 27 26 27 24 22 24 34 33 16 15 16 24 30
Wind_Direction_850mb
267 270 266 237 199 197 207 202 207 227 219 201 71 89 105 131 135 179 172 174 172 181 182 190 197 202 206 211 214 218 225 230 232 233 235 235 235 238 237 236 238 238 238 236
291 262 265 272 201 193 204 212 235 221 234 198 151 103 85 88 99 96 98 169 172 177 184 191 201 205 207 209 213 216 221 230 234 235 235 237 238 238 240 242 239 241 243 242
302 279 285 213 248 196 204 202 210 234 195 169 126 127 127 109 97 92 89 88 99 118 190 191 196 203 207 211 215 216 220 226 229 231 234 236 239 240 241 242 245 245 245 247
285 33 112 257 322 304 197 199 210 230 168 164 127 65 79 109 115 98 89 81 78 86 127 152 176 210 213 213 213 218 222 226 228 232 235 237 239 240 242 243 245 248 250 249
319 310 298 268 3 346 249 54 7 351 180 119 97 70 36 54 68 69 76 76 73 69 55 180 201 206 207 213 214 217 221 228 230 234 238 240 241 242 244 245 247 250 253 255
348 310 192 357 340 325 305 57 2 15 32 108 88 79 33 46 54 60 66 67 76 67 42 67 79 212 208 209 210 215 221 227 230 234 237 241 246 246 246 248 250 252 253 256
282 296 1 342 345 15 69 55 12 20 28 54 70 75 61 56 49 45 47 55 76 109 341 24 339 244 173 212 222 230 230 232 233 235 239 244 245 246 246 244 247 248 252 255
11 359 16 355 14 57 84 43 35 21 23 46 52 53 51 42 41 44 56 47 43 31 349 320 315 289 267 203 198 224 235 238 237 238 239 243 247 250 246 245 244 246 250 254
338 92 71 360 338 9 37 39 25 25 22 34 36 33 33 27 28 31 42 55 62 30 9 353 243 274 275 257 239 238 229 234 238 241 242 241 243 243 242 241 240 243 247 254
328 7 340 33 354 349 353 9 5 9 20 29 30 22 18 20 17 18 29 43 38 30 23 334 272 251 258 266 263 260 258 253 241 236 233 234 239 238 237 239 241 245 250 253
303 23 342 356 354 350 342 353 345 342 347 0 16 10 4 10 4 3 12 21 11 359 8 330 299 281 266 251 250 249 248 238 229 225 230 235 228 232 234 238 245 247 248 248
293 312 319 307 322 327 337 344 348 5 339 342 351 6 344 349 3 358 2 353 346 335 316 307 305 306 303 278 260 245 229 224 215 216 221 220 210 212 221 229 234 232 235 238
291 293 296 293 301 307 317 325 331 344 358 2 358 358 351 341 349 354 353 343 332 313 300 296 295 300 310 303 261 221 217 219 209 205 213 207 209 202 204 205 210 215 230 233
295 289 283 266 270 292 298 310 322 317 333 340 345 350 335 7 359 352 337 309 302 287 272 284 283 273 271 297 254 212 163 166 187 190 186 192 189 208 213 201 193 198 205 234
292 274 262 261 262 259 268 292 309 319 314 311 323 330 336 340 344 337 320 307 296 280 237 245 233 225 236 259 243 182 173 163 156 167 153 158 149 145 149 163 175 197 226 262
327 266 244 236 242 248 264 273 289 292 299 303 304 306 311 309 313 309 309 282 236 229 214 194 190 194 161 112 204 193 171 166 155 148 142 148 145 147 147 136 139 151 214 256
15 68 148 209 241 247 253 270 286 279 285 294 296 288 297 300 282 303 284 226 213 193 167 177 186 183 161 167 196 162 155 153 159 159 147 145 145 141 140 146 146 139 133 17
41 44 36 4 265 248 249 269 280 281 278 278 279 283 283 285 280 226 197 163 173 172 159 125 190 174 165 152 150 144 140 145 153 141 135 134 132 142 149 155 155 139 117 29
38 39 43 44 53 245 259 285 262 225 241 275 286 247 208 200 175 154 146 164 148 150 150 123 112 150 160 149 153 148 138 121 116 109 102 98 92 91 93 96 98 101 99 81
37 41 47 47 59 67 74 95 112 104 105 116 113 114 124 122 122 113 120 99 88 95 103 108 108 110 100 108 108 116 125 117 116 115 117 109 103 95 96 94 93 87 81 72
48 42 44 53 53 56 64 62 79 82 80 78 74 72 83 95 101 109 101 89 84 98 107 100 96 100 101 104 97 99 99 103 110 112 104 102 104 100 95 90 83 75 69 64
55 57 57 55 57 56 54 57 62 67 72 70 72 71 69 69 72 81 76 74 69 78 84 86 94 92 100 104 103 102 99 99 92 91 93 93 92 84 77 78 76 70 63 58
45 52 65 65 63 63 56 52 54 53 57 59 59 55 54 53 53 61 61 58 57 57 59 56 58 82 85 95 101 99 94 99 95 100 95 92 94 97 91 75 68 54 44 39
39 63 68 77 71 69 64 55 50 46 49 47 46 46 44 47 54 63 67 58 57 59 71 74 72 70 72 77 82 89 90 86 97 100 100 100 97 110 103 98 83 67 42 38
65 50 59 65 79 76 72 58 50 59 62 59 44 44 66 61 77 72 75 76 79 102 90 84 77 92 81 105 115 111 93 92 95 99 90 77 65 55 60 66 65 47 27 18
38 98 75 68 68 62 65 53 45 48 62 58 57 59 56 63 76 73 72 83 74 77 104 85 87 97 91 86 83 104 102 91 90 98 104 104 92 82 67 52 34 16 7 1
51 50 59 50 38 55 71 56 50 47 60 67 60 50 50 59 67 72 74 77 79 82 72 84 78 83 87 81 93 93 82 82 83 88 102 114 101 88 74 82 59 21 353 354